星链-33955 (STARLINK-33955)

导读

STARLINK-33955是美国SpaceX星链星座组网卫星,于2025年5月10日发射,是星链星座中低轨卫星互联网星座的一员,主要为全球范围用户提供高速卫星互联网接入服务,重点覆盖偏远地区及地面网络基础设施不足的区域,进一步拓展星链系统服务覆盖密度与网络能力。

基本信息
目录编号:
63902
目录名称:
STARLINK-33955
国际标识:
2025-095N
轨道中心:
EARTH
卫星名称:
星链-33955
卫星全名:
星链-33955 (STARLINK-33955)
卫星状态:
在轨 (已飞行482 天)
发射日期:
2025-05-10 UTC
国别 :
美国 (US)
星等 :
--
轨道信息
数据来源 国际轨道数据
星历时间: 2026-09-04T09:45:37+0800
13小时前
查看轨道信息
半长轴: 6861.244km
偏心率: 0.0001728
轨道倾角: 42.998°
近地点辐角 185.401°
升交点赤经 248.419°
平近点角 174.683°
近地点: 481.921km
远地点: 484.293km
周期: 94.268分钟
每日圈数: 15.275609
详细信息
固有亮度:
5
最大亮度:
2.5
卫星平台:
Starlink V1.0
覆盖范围:
全球
运营商:
太空探索技术公司
运营商所在国:
美国
制造商(研发单位):
太空探索技术公司
制造商所在国:
美国
使用方式:
暂无
卫星简介
Starlink 计划是 SpaceX 推出的全球卫星互联网项目,通过发射低轨道卫星,为全球尤其是偏远地区提供高速、低延迟的互联网服务。自 2019 年起,Starlink 已部署数千颗卫星,旨在缩小全球数字鸿沟,推动互联网普及。该项目还为军事、航空等行业提供通信支持,带来广泛经济效益。
2D轨道图
3D轨道图
轨道高度分析图
轨道倾角分析图
轨道综合分析图
查看轨道综合分析图